When you browse on this site, cookies collect data to enhance your experience and personalize the content and advertising you see.
Visit our Privacy Policy to learn more. By continuing to use the site, you agree to this use of cookies and data.
  • In Latvia
  • List of Countries
  • For 7 days
  • Water Temperature
  • Weather Map
  • Weather Widgets
  • user-avatar
    Login

    Hourly Weather Kopylok

    Today, 14 October, Monday

    Time Temperature Precipitation Wind Pressure Humidity
    00:00 +7°C° 0 mm 2 mps 747 mmHg 96%
    01:00 +7°C° 0 mm 2 mps 747 mmHg 96%
    02:00 +7°C° 0 mm 1 mps 747 mmHg 97%
    03:00 +6°C° 0 mm 2 mps 747 mmHg 97%
    04:00 +6°C° 0 mm 2 mps 746 mmHg 97%
    05:00 +6°C° 0 mm 2 mps 746 mmHg 97%
    06:00 +7°C° 0.3 mm 3 mps 745 mmHg 95%
    07:00 +8°C° 0.3 mm 3 mps 744 mmHg 94%
    08:00 +8°C° 0.3 mm 4 mps 744 mmHg 92%
    09:00 +10°C° 0.2 mm 5 mps 743 mmHg 90%
    10:00 +12°C° 0.2 mm 5 mps 742 mmHg 89%
    11:00 +14°C° 0.2 mm 5 mps 741 mmHg 88%
    12:00 +15°C° 0 mm 5 mps 741 mmHg 85%
    13:00 +15°C° 0 mm 5 mps 741 mmHg 82%
    14:00 +16°C° 0 mm 6 mps 740 mmHg 79%
    15:00 +16°C° 0 mm 5 mps 740 mmHg 81%
    16:00 +16°C° 0 mm 5 mps 740 mmHg 83%
    17:00 +15°C° 0 mm 5 mps 740 mmHg 85%
    18:00 +14°C° 0 mm 5 mps 741 mmHg 83%
    19:00 +13°C° 0 mm 6 mps 741 mmHg 81%
    20:00 +13°C° 0 mm 6 mps 742 mmHg 79%
    21:00 +12°C° 0 mm 5 mps 742 mmHg 81%
    22:00 +11°C° 0 mm 4 mps 742 mmHg 84%
    23:00 +10°C° 0 mm 3 mps 743 mmHg 87%

    Tomorrow, 15 October, Tuesday

    Time Temperature Precipitation Wind Pressure Humidity
    00:00 +10°C° 0 mm 3 mps 744 mmHg 87%
    01:00 +10°C° 0 mm 3 mps 744 mmHg 87%
    02:00 +11°C° 0 mm 3 mps 745 mmHg 87%
    03:00 +10°C° 0 mm 3 mps 746 mmHg 88%
    04:00 +10°C° 0 mm 3 mps 746 mmHg 90%
    05:00 +10°C° 0 mm 3 mps 747 mmHg 91%
    06:00 +10°C° 0 mm 2 mps 748 mmHg 90%
    07:00 +9°C° 0 mm 2 mps 748 mmHg 90%
    08:00 +9°C° 0 mm 2 mps 749 mmHg 89%
    09:00 +9°C° 0 mm 2 mps 750 mmHg 87%
    10:00 +9°C° 0 mm 2 mps 750 mmHg 84%
    11:00 +9°C° 0 mm 2 mps 751 mmHg 82%
    12:00 +9°C° 0 mm 2 mps 751 mmHg 80%
    13:00 +9°C° 0 mm 2 mps 751 mmHg 78%
    14:00 +9°C° 0 mm 2 mps 751 mmHg 77%
    15:00 +9°C° 0 mm 2 mps 751 mmHg 80%
    16:00 +8°C° 0 mm 2 mps 751 mmHg 83%
    17:00 +7°C° 0 mm 2 mps 751 mmHg 86%
    18:00 +7°C° 0 mm 2 mps 751 mmHg 87%
    19:00 +6°C° 0 mm 2 mps 751 mmHg 88%
    20:00 +5°C° 0 mm 3 mps 751 mmHg 89%
    21:00 +5°C° 0 mm 3 mps 751 mmHg 90%
    22:00 +5°C° 0 mm 3 mps 751 mmHg 91%
    23:00 +5°C° 0 mm 3 mps 751 mmHg 92%

    Day after tomorrow, 16 October, Wednesday

    Time Temperature Precipitation Wind Pressure Humidity
    00:00 +5°C° 0 mm 3 mps 751 mmHg 93%
    01:00 +5°C° 0 mm 3 mps 750 mmHg 94%
    02:00 +5°C° 0 mm 3 mps 750 mmHg 95%
    03:00 +7°C° 0 mm 3 mps 750 mmHg 95%
    04:00 +6°C° 0 mm 4 mps 749 mmHg 95%
    05:00 +6°C° 0 mm 4 mps 749 mmHg 95%
    06:00 +7°C° 0 mm 4 mps 748 mmHg 93%
    07:00 +7°C° 0 mm 4 mps 748 mmHg 91%
    08:00 +8°C° 0 mm 4 mps 747 mmHg 90%
    09:00 +10°C° 0 mm 4 mps 747 mmHg 86%
    10:00 +10°C° 0 mm 5 mps 746 mmHg 83%
    11:00 +12°C° 0 mm 5 mps 746 mmHg 80%
    12:00 +13°C° 0 mm 5 mps 745 mmHg 78%
    13:00 +14°C° 0 mm 5 mps 745 mmHg 76%
    14:00 +15°C° 0 mm 5 mps 744 mmHg 73%
    15:00 +14°C° 0 mm 4 mps 744 mmHg 75%
    16:00 +14°C° 0 mm 4 mps 743 mmHg 77%
    17:00 +13°C° 0 mm 4 mps 743 mmHg 79%
    18:00 +13°C° 0 mm 4 mps 743 mmHg 80%
    19:00 +12°C° 0 mm 3 mps 743 mmHg 82%
    20:00 +12°C° 0 mm 3 mps 743 mmHg 83%
    21:00 +12°C° 0 mm 3 mps 742 mmHg 86%
    22:00 +11°C° 0 mm 3 mps 742 mmHg 89%
    23:00 +11°C° 0 mm 3 mps 742 mmHg 92%

    17 October, Thursday

    Time Temperature Precipitation Wind Pressure Humidity
    00:00 +12°C° 0.1 mm 3 mps 742 mmHg 93%
    01:00 +12°C° 0.1 mm 3 mps 742 mmHg 93%
    02:00 +13°C° 0.1 mm 3 mps 743 mmHg 94%
    03:00 +13°C° 0.1 mm 4 mps 743 mmHg 93%
    04:00 +13°C° 0.1 mm 4 mps 743 mmHg 93%
    05:00 +13°C° 0.1 mm 4 mps 743 mmHg 93%
    06:00 +12°C° 0 mm 4 mps 743 mmHg 91%
    07:00 +11°C° 0 mm 4 mps 743 mmHg 90%
    08:00 +11°C° 0 mm 4 mps 743 mmHg 89%
    09:00 +11°C° 0 mm 4 mps 744 mmHg 84%
    10:00 +12°C° 0 mm 4 mps 744 mmHg 79%
    11:00 +13°C° 0 mm 4 mps 745 mmHg 75%
    12:00 +13°C° 0.1 mm 4 mps 745 mmHg 73%
    13:00 +13°C° 0.1 mm 3 mps 745 mmHg 72%
    14:00 +14°C° 0.1 mm 3 mps 745 mmHg 70%
    15:00 +13°C° 0.3 mm 3 mps 745 mmHg 76%
    16:00 +13°C° 0.3 mm 2 mps 745 mmHg 82%
    17:00 +12°C° 0.3 mm 1 mps 745 mmHg 88%
    18:00 +12°C° 1 mm 1 mps 745 mmHg 91%
    19:00 +11°C° 1 mm 1 mps 746 mmHg 93%
    20:00 +10°C° 1 mm 0 mps 746 mmHg 96%
    21:00 +10°C° 0.2 mm 0 mps 746 mmHg 95%
    22:00 +10°C° 0.2 mm 0 mps 747 mmHg 95%
    23:00 +11°C° 0.2 mm 1 mps 747 mmHg 95%

    18 October, Friday

    Time Temperature Precipitation Wind Pressure Humidity
    00:00 +10°C° 0.1 mm 1 mps 747 mmHg 95%
    01:00 +9°C° 0.1 mm 2 mps 748 mmHg 94%
    02:00 +8°C° 0.1 mm 2 mps 748 mmHg 94%
    03:00 +8°C° 0 mm 2 mps 748 mmHg 94%
    04:00 +8°C° 0 mm 2 mps 749 mmHg 94%
    05:00 +8°C° 0 mm 2 mps 749 mmHg 94%
    06:00 +8°C° 0 mm 2 mps 749 mmHg 94%
    07:00 +8°C° 0 mm 2 mps 750 mmHg 94%
    08:00 +8°C° 0 mm 2 mps 750 mmHg 94%
    09:00 +8°C° 0 mm 2 mps 750 mmHg 93%
    10:00 +9°C° 0 mm 2 mps 751 mmHg 92%
    11:00 +9°C° 0 mm 2 mps 751 mmHg 91%
    12:00 +9°C° 0 mm 2 mps 751 mmHg 91%
    13:00 +9°C° 0 mm 2 mps 751 mmHg 91%
    14:00 +10°C° 0 mm 2 mps 751 mmHg 91%
    15:00 +9°C° 0 mm 2 mps 751 mmHg 92%
    16:00 +9°C° 0 mm 2 mps 751 mmHg 93%
    17:00 +9°C° 0 mm 2 mps 751 mmHg 94%
    18:00 +10°C° 0 mm 1 mps 751 mmHg 95%
    19:00 +10°C° 0 mm 1 mps 751 mmHg 95%
    20:00 +10°C° 0 mm 1 mps 751 mmHg 96%
    21:00 +9°C° 0 mm 1 mps 751 mmHg 96%
    22:00 +9°C° 0 mm 1 mps 751 mmHg 97%
    23:00 +9°C° 0 mm 1 mps 751 mmHg 97%

    19 October, Saturday

    Time Temperature Precipitation Wind Pressure Humidity
    00:00 +9°C° 0 mm 1 mps 751 mmHg 97%
    01:00 +9°C° 0 mm 1 mps 751 mmHg 97%
    02:00 +9°C° 0 mm 1 mps 751 mmHg 97%
    03:00 +9°C° 0 mm 1 mps 751 mmHg 97%
    04:00 +9°C° 0 mm 1 mps 751 mmHg 98%
    05:00 +9°C° 0 mm 1 mps 751 mmHg 98%
    06:00 +10°C° 0 mm 1 mps 751 mmHg 98%
    07:00 +10°C° 0 mm 1 mps 751 mmHg 97%
    08:00 +10°C° 0 mm 1 mps 751 mmHg 97%
    09:00 +11°C° 0 mm 1 mps 751 mmHg 93%
    10:00 +12°C° 0 mm 2 mps 751 mmHg 90%
    11:00 +13°C° 0 mm 2 mps 751 mmHg 86%
    12:00 +14°C° 0 mm 2 mps 751 mmHg 85%
    13:00 +14°C° 0 mm 2 mps 751 mmHg 84%
    14:00 +14°C° 0 mm 2 mps 750 mmHg 83%
    15:00 +14°C° 0 mm 2 mps 750 mmHg 86%
    16:00 +13°C° 0 mm 2 mps 750 mmHg 89%
    17:00 +12°C° 0 mm 2 mps 750 mmHg 92%
    18:00 +12°C° 0 mm 2 mps 750 mmHg 93%
    19:00 +12°C° 0 mm 2 mps 750 mmHg 93%
    20:00 +11°C° 0 mm 1 mps 750 mmHg 94%
    21:00 +11°C° 0 mm 1 mps 750 mmHg 95%
    22:00 +10°C° 0 mm 1 mps 750 mmHg 95%
    23:00 +10°C° 0 mm 1 mps 750 mmHg 96%
    Show more